"Pseudo-MPEC" for W02080

Created 2023 Nov 24 19:22:16 UT using Find_Orb

Click here for an explanation of pseudo-MPECs

 
 Astrometry: 
     W02080 * C2023 11 10og2)2wTa$b`LJAstrometry!'Go2'YjuYKredacted;$++Do697RO18
     W02080   C2023 11 10Kt?I)'E@-oclickv4pherekx%EM^pRiUP9EiforPxo$qr-wSRq`!O18
     W02080   C2023 11 10GNrm)JrNQ0x)y-YlS#B+L!D.explanationSwa$7bLe4?n8kBj!tO18

Station data:
(O18) WFST, Lenghu  (N38.607601 E93.895220).

Orbital elements:  W02080
   Perihelion 2024 Mar 9.70062 +/- 103 TT = 16:48:53 (JD 2460379.20062)
Epoch 2023 Nov 11.0 TT = JDT 2460259.5   Earth MOID: 0.1776   Ma: 0.0575
M 292.36401418 +/- 58               (J2000 ecliptic)             AutoNEOCP
n   0.56504291 +/- 0.341            Peri.  282.18963 +/- 100
a   1.44904461 +/- 0.584            Node   229.66988 +/- 29
e   0.3177781 +/- 0.282             Incl.   27.22170 +/- 23
P   1.74/637.11d           H 22.88  G  0.15   U 12.0  SR
q 0.98856985 +/- 0.421    Q 1.90951938 +/- 26.6
From 3 observations 2023 Nov. 10 (41.6 min); mean residual 0".07
Residuals in arcseconds: 
231110 O18  .01+  .07+    231110 O18  .03-  .15-    231110 O18  .01+  .07+    

Ephemerides (geocentric):
Date (UTC) HH   RA             Dec           delta  r     elong  mag " sig PA
---- --------  ------------   ------------  ------ ------ -----  --- --------
2023 11 24 19  02 29 14.657   +05 05 19.09  .39359 1.3504 153.2 22.5  45d 104
2023 11 24 20  02 29 10.852   +05 02 29.77  .39358 1.3502 153.2 22.5  45d 104
2023 11 24 21  02 29 07.052   +04 59 40.48  .39357 1.3500 153.1 22.5  45d 104
2023 11 24 22  02 29 03.256   +04 56 51.22  .39356 1.3498 153.0 22.5  45d 104
2023 11 24 23  02 28 59.464   +04 54 02.01  .39356 1.3496 152.9 22.5  46d 104
2023 11 25 00  02 28 55.677   +04 51 12.84  .39355 1.3494 152.8 22.5  46d 104
2023 11 25 01  02 28 51.895   +04 48 23.70  .39354 1.3492 152.8 22.5  46d 104
2023 11 25 02  02 28 48.117   +04 45 34.61  .39354 1.3490 152.7 22.5  46d 104
2023 11 25 03  02 28 44.344   +04 42 45.55  .39353 1.3488 152.6 22.5  46d 104
2023 11 25 04  02 28 40.575   +04 39 56.54  .39353 1.3486 152.5 22.5  46d 104
2023 11 25 05  02 28 36.810   +04 37 07.57  .39352 1.3484 152.4 22.5  46d 104
2023 11 25 06  02 28 33.050   +04 34 18.64  .39352 1.3482 152.4 22.5  46d 104
2023 11 25 07  02 28 29.295   +04 31 29.76  .39352 1.3480 152.3 22.5  46d 104
2023 11 25 08  02 28 25.544   +04 28 40.92  .39351 1.3478 152.2 22.5  46d 104
2023 11 25 09  02 28 21.798   +04 25 52.12  .39351 1.3476 152.1 22.5  46d 104
2023 11 25 10  02 28 18.057   +04 23 03.36  .39351 1.3474 152.0 22.5  46d 104
2023 11 25 11  02 28 14.320   +04 20 14.66  .39351 1.3472 152.0 22.5  46d 104
2023 11 25 12  02 28 10.588   +04 17 26.00  .39351 1.3470 151.9 22.5  46d 104
2023 11 25 13  02 28 06.860   +04 14 37.38  .39351 1.3468 151.8 22.5  46d 104
2023 11 25 14  02 28 03.137   +04 11 48.81  .39351 1.3466 151.7 22.5  46d 104
2023 11 25 15  02 27 59.418   +04 09 00.29  .39351 1.3464 151.6 22.5  46d 104
2023 11 25 16  02 27 55.705   +04 06 11.82  .39351 1.3462 151.6 22.5  46d 104
2023 11 25 17  02 27 51.996   +04 03 23.39  .39351 1.3460 151.5 22.5  46d 104
2023 11 25 18  02 27 48.291   +04 00 35.02  .39351 1.3458 151.4 22.5  46d 104
2023 11 25 19  02 27 44.592   +03 57 46.69  .39352 1.3456 151.3 22.5  46d 104
2023 11 25 20  02 27 40.897   +03 54 58.42  .39352 1.3454 151.2 22.5  46d 104
2023 11 25 21  02 27 37.207   +03 52 10.19  .39352 1.3452 151.2 22.5  46d 104
2023 11 25 22  02 27 33.521   +03 49 22.02  .39353 1.3450 151.1 22.5  46d 104
2023 11 25 23  02 27 29.840   +03 46 33.90  .39353 1.3448 151.0 22.5  46d 104
2023 11 26 00  02 27 26.164   +03 43 45.83  .39354 1.3446 150.9 22.5  46d 104
2023 11 26 01  02 27 22.493   +03 40 57.82  .39354 1.3444 150.8 22.5  46d 104
2023 11 26 02  02 27 18.827   +03 38 09.85  .39355 1.3442 150.8 22.5  46d 104
2023 11 26 03  02 27 15.165   +03 35 21.95  .39355 1.3440 150.7 22.5  46d 104
2023 11 26 04  02 27 11.508   +03 32 34.09  .39356 1.3438 150.6 22.5  46d 104
2023 11 26 05  02 27 07.856   +03 29 46.30  .39357 1.3436 150.5 22.5  46d 104
2023 11 26 06  02 27 04.209   +03 26 58.56  .39358 1.3434 150.4 22.5  46d 104
2023 11 26 07  02 27 00.566   +03 24 10.87  .39359 1.3432 150.4 22.5  46d 104
2023 11 26 08  02 26 56.928   +03 21 23.24  .39359 1.3430 150.3 22.5  46d 104
2023 11 26 09  02 26 53.296   +03 18 35.67  .39360 1.3428 150.2 22.5  46d 104
2023 11 26 10  02 26 49.668   +03 15 48.16  .39361 1.3426 150.1 22.5  46d 104
2023 11 26 11  02 26 46.045   +03 13 00.70  .39362 1.3424 150.0 22.5  46d 104
2023 11 26 12  02 26 42.426   +03 10 13.31  .39363 1.3422 150.0 22.5  46d 104
2023 11 26 13  02 26 38.813   +03 07 25.97  .39365 1.3421 149.9 22.5  46d 104
2023 11 26 14  02 26 35.205   +03 04 38.70  .39366 1.3419 149.8 22.5  46d 104
2023 11 26 15  02 26 31.601   +03 01 51.48  .39367 1.3417 149.7 22.6  46d 104
2023 11 26 16  02 26 28.003   +02 59 04.33  .39368 1.3415 149.6 22.6  46d 104
2023 11 26 17  02 26 24.409   +02 56 17.23  .39370 1.3413 149.6 22.6  46d 104
2023 11 26 18  02 26 20.820   +02 53 30.20  .39371 1.3411 149.5 22.6  46d 104